Location: Banksville Park
(38.5557°N, 75.1182°W)
Time: 09:03:39
(UTC+00:00)

Envisat - Pass Details

Date: 27 November 2020
Orbit: 764 x 766 km, 98.1° (Epoch: 15 January)

Event Time Altitude Azimuth Distance (km) Brightness Sun altitude
Rises 22:21:52 0° 175° (S) 3,216 6.5 -8.2°
Reaches altitude 10° 22:24:12 10° 179° (S) 2,295 5.7 -8.6°
Maximum altitude 22:29:11 60° 259° (W) 877 3.7 -9.5°
Drops below altitude 10° 22:34:13 10° 340° (NNW) 2,311 5.5 -10.5°
Sets 22:36:34 0° 344° (NNW) 3,241 6.2 -10.9°
